TimeEST,TemperatureF,Dew PointF,Humidity,Sea Level PressureIn,VisibilityMPH,Wind Direction,Wind SpeedMPH,Gust SpeedMPH,PrecipitationIn,Events,Conditions,WindDirDegrees,DateUTC
12:11 AM,36.0,29.1,76,29.84,10.0,West,11.5,19.6,N/A,,Overcast,260,2013-01-06 05:11:00
12:32 AM,36.0,28.4,74,29.83,10.0,West,9.2,-,N/A,,Overcast,270,2013-01-06 05:32:00
12:52 AM,35.8,28.4,75,29.82,10.0,West,10.4,19.6,N/A,,Overcast,270,2013-01-06 05:52:00
1:12 AM,35.8,28.4,75,29.82,10.0,West,10.4,18.4,N/A,,Overcast,260,2013-01-06 06:12:00
1:32 AM,35.6,28.4,75,29.82,10.0,West,10.4,18.4,N/A,,Overcast,280,2013-01-06 06:32:00
1:52 AM,35.4,28.0,75,29.81,10.0,West,8.1,-,N/A,,Overcast,270,2013-01-06 06:52:00
2:12 AM,34.7,28.8,79,29.80,10.0,WNW,6.9,-,N/A,,Overcast,290,2013-01-06 07:12:00
2:32 AM,34.5,28.4,78,29.80,10.0,WNW,8.1,-,N/A,,Overcast,290,2013-01-06 07:32:00
2:52 AM,34.3,28.4,79,29.80,10.0,WNW,10.4,-,N/A,,Overcast,290,2013-01-06 07:52:00
3:13 AM,33.8,27.3,77,29.81,10.0,WNW,9.2,-,N/A,,Overcast,300,2013-01-06 08:13:00
3:33 AM,33.8,27.1,77,29.80,10.0,WNW,9.2,-,N/A,,Overcast,290,2013-01-06 08:33:00
3:53 AM,33.3,27.1,78,29.80,10.0,WNW,11.5,17.3,N/A,,Overcast,290,2013-01-06 08:53:00
4:13 AM,32.9,26.6,78,29.80,10.0,WNW,10.4,-,N/A,,Overcast,300,2013-01-06 09:13:00
4:33 AM,32.9,25.9,75,29.80,10.0,West,12.7,16.1,N/A,,Overcast,280,2013-01-06 09:33:00
4:53 AM,32.4,25.7,76,29.80,10.0,WNW,10.4,-,N/A,,Overcast,290,2013-01-06 09:53:00
5:13 AM,32.0,25.5,77,29.80,10.0,NW,9.2,-,N/A,,Overcast,310,2013-01-06 10:13:00
5:33 AM,32.0,24.8,75,29.80,10.0,West,9.2,-,N/A,,Overcast,280,2013-01-06 10:33:00
5:54 AM,32.0,24.8,75,29.80,10.0,WNW,8.1,-,N/A,,Overcast,290,2013-01-06 10:54:00
6:14 AM,31.6,24.4,75,29.81,10.0,West,8.1,-,N/A,,Overcast,280,2013-01-06 11:14:00
6:34 AM,31.6,23.7,73,29.82,10.0,WNW,11.5,18.4,N/A,,Overcast,290,2013-01-06 11:34:00
6:54 AM,31.3,24.3,75,29.82,7.0,WNW,8.1,21.9,N/A,Snow,Light Snow,290,2013-01-06 11:54:00
7:14 AM,31.1,24.6,77,29.83,10.0,WNW,11.5,17.3,N/A,,Overcast,290,2013-01-06 12:14:00
7:34 AM,30.4,26.2,85,29.83,4.0,WNW,12.7,19.6,N/A,Snow,Light Snow,300,2013-01-06 12:34:00
7:55 AM,30.2,26.6,86,29.84,4.0,WNW,11.5,18.4,N/A,Snow,Light Snow,300,2013-01-06 12:55:00
8:15 AM,30.6,26.6,85,29.85,4.0,NW,12.7,-,N/A,Snow,Light Snow,310,2013-01-06 13:15:00
8:35 AM,30.7,27.1,86,29.85,2.0,WNW,9.2,-,N/A,Snow,Light Snow,300,2013-01-06 13:35:00
8:55 AM,31.1,27.7,87,29.86,3.0,NNW,6.9,-,N/A,Snow,Light Snow,330,2013-01-06 13:55:00
9:15 AM,31.8,27.1,83,29.86,10.0,NNW,6.9,-,N/A,,Overcast,330,2013-01-06 14:15:00
9:36 AM,32.0,27.3,83,29.88,10.0,NNW,8.1,-,N/A,,Overcast,330,2013-01-06 14:36:00
9:56 AM,32.2,27.5,83,29.88,10.0,NNW,5.8,-,N/A,,Overcast,330,2013-01-06 14:56:00
10:16 AM,32.9,27.3,80,29.89,10.0,NW,9.2,-,N/A,,Overcast,320,2013-01-06 15:16:00
10:36 AM,33.1,27.5,80,29.90,10.0,NW,8.1,-,N/A,,Overcast,320,2013-01-06 15:36:00
10:51 AM,33.1,27.9,81,29.91,10.0,NW,10.4,-,N/A,,Overcast,320,2013-01-06 15:51:00
11:11 AM,33.4,27.9,80,29.92,10.0,NNW,8.1,-,N/A,,Overcast,330,2013-01-06 16:11:00
11:32 AM,33.8,27.5,78,29.93,10.0,NNW,6.9,17.3,N/A,,Overcast,340,2013-01-06 16:32:00
11:52 AM,33.4,27.3,78,29.93,10.0,North,12.7,18.4,N/A,,Overcast,350,2013-01-06 16:52:00
12:32 PM,33.1,28.2,82,29.94,10.0,NNW,9.2,-,N/A,,Overcast,340,2013-01-06 17:32:00
12:52 PM,32.0,29.7,91,29.95,0.5,North,17.3,25.3,N/A,Snow,Light Snow,360,2013-01-06 17:52:00
1:13 PM,32.2,29.1,88,29.95,1.2,NNW,15.0,21.9,N/A,Snow,Light Snow,340,2013-01-06 18:13:00
1:33 PM,32.9,27.3,80,29.96,7.0,North,15.0,23.0,N/A,,Overcast,350,2013-01-06 18:33:00
1:53 PM,32.9,27.1,79,29.98,10.0,NNW,10.4,20.7,N/A,,Overcast,340,2013-01-06 18:53:00
2:13 PM,32.2,26.8,80,29.99,7.0,NNW,15.0,25.3,N/A,,Overcast,330,2013-01-06 19:13:00
2:33 PM,32.0,26.6,80,30.01,10.0,NNW,12.7,24.2,N/A,,Overcast,340,2013-01-06 19:33:00
2:53 PM,31.8,26.2,80,30.02,10.0,NNW,16.1,23.0,N/A,,Overcast,330,2013-01-06 19:53:00
3:13 PM,31.6,25.7,79,30.03,10.0,NNW,10.4,19.6,N/A,,Overcast,340,2013-01-06 20:13:00
3:34 PM,31.6,25.7,79,30.05,10.0,NNW,10.4,19.6,N/A,,Overcast,330,2013-01-06 20:34:00
3:54 PM,31.5,25.5,79,30.07,10.0,North,8.1,16.1,N/A,,Overcast,350,2013-01-06 20:54:00
4:14 PM,31.5,25.2,78,30.08,10.0,NNW,9.2,19.6,N/A,,Overcast,340,2013-01-06 21:14:00
4:34 PM,31.1,24.6,77,30.10,10.0,NNW,10.4,20.7,N/A,,Overcast,330,2013-01-06 21:34:00
4:54 PM,30.9,23.7,75,30.12,10.0,NNW,10.4,-,N/A,,Overcast,330,2013-01-06 21:54:00
5:15 PM,30.6,23.0,74,30.13,10.0,NW,10.4,16.1,N/A,,Overcast,320,2013-01-06 22:15:00
5:35 PM,30.6,22.6,72,30.14,10.0,NNW,8.1,-,N/A,,Overcast,340,2013-01-06 22:35:00
5:55 PM,30.2,22.3,72,30.15,10.0,NNW,4.6,-,N/A,,Overcast,330,2013-01-06 22:55:00
6:15 PM,30.2,21.9,71,30.16,10.0,NNW,9.2,-,N/A,,Overcast,330,2013-01-06 23:15:00
6:35 PM,30.2,21.2,69,30.17,10.0,NNW,4.6,-,N/A,,Overcast,330,2013-01-06 23:35:00
6:55 PM,30.2,21.6,70,30.18,10.0,NW,9.2,-,N/A,,Overcast,320,2013-01-06 23:55:00
7:15 PM,29.8,21.6,71,30.19,10.0,NNW,6.9,-,N/A,,Overcast,340,2013-01-07 00:15:00
7:36 PM,29.8,21.4,71,30.19,10.0,NW,5.8,-,N/A,,Overcast,320,2013-01-07 00:36:00
7:56 PM,29.5,20.7,70,30.20,10.0,NNW,6.9,-,N/A,,Overcast,330,2013-01-07 00:56:00
8:16 PM,29.3,20.1,69,30.20,10.0,NNW,3.5,-,N/A,,Overcast,340,2013-01-07 01:16:00
8:36 PM,29.3,19.8,68,30.20,10.0,Calm,Calm,-,N/A,,Overcast,0,2013-01-07 01:36:00
8:56 PM,29.1,19.9,69,30.22,10.0,NW,3.5,-,N/A,,Overcast,310,2013-01-07 01:56:00
9:16 PM,28.9,20.5,71,30.21,10.0,Calm,Calm,-,N/A,,Overcast,0,2013-01-07 02:16:00
9:31 PM,29.1,19.6,68,30.20,10.0,Calm,Calm,-,N/A,,Overcast,0,2013-01-07 02:31:00
9:51 PM,28.6,20.8,73,30.20,10.0,Calm,Calm,-,N/A,,Overcast,0,2013-01-07 02:51:00
10:12 PM,28.0,20.8,74,30.20,10.0,Calm,Calm,-,N/A,,Overcast,0,2013-01-07 03:12:00
10:32 PM,27.1,19.8,74,30.21,10.0,Calm,Calm,-,N/A,,Mostly Cloudy,0,2013-01-07 03:32:00
10:52 PM,24.8,19.4,80,30.22,10.0,Calm,Calm,-,N/A,,Scattered Clouds,0,2013-01-07 03:52:00
11:32 PM,23.0,17.8,80,30.23,10.0,Calm,Calm,-,N/A,,Clear,0,2013-01-07 04:32:00
11:52 PM,21.7,17.2,83,30.23,10.0,Calm,Calm,-,N/A,,Scattered Clouds,0,2013-01-07 04:52:00